Adana Incirlik AFB, Turkey

10:11 AM +03 on April 25, 2018 (GMT +0300)
Incirlik Air Base

Weather History for LTAG - March, 2013

Change the Weather History Date:

Saturday, March 16, 2013

  Actual Average Record
Temperature  
Mean Temperature 60 °F -  
Max Temperature 66 °F 71 °F 73 °F (2002)
Min Temperature 53 °F 51 °F 33 °F (2004)
Degree Days  
Heating Degree Days 4    
Growing Degree Days 10 (Base 50)    
Moisture  
Dew Point 51 °F    
Average Humidity 69    
Maximum Humidity 100    
Minimum Humidity 42    
Precipitation  
Precipitation 0.00 in - - ()
Sea Level Pressure  
Sea Level Pressure 29.76 in    
Wind  
Wind Speed 9 mph ()    
Max Wind Speed 17 mph    
Max Gust Speed -    
Visibility 6.0 miles    
Events      
Averages and records for this station are not official NWS values.
T = Trace of Precipitation, MM = Missing Value Source: Averaged Metar Reports

Daily Weather History Graph

Daily Weather History Graph

Search for Another Location

Airport or City:

Astronomy

Mar. 16, 2013 Rise Set
Actual Time 5:47 AM EET 5:46 PM EET
Civil Twilight 5:22 AM EET 6:12 PM EET
Nautical Twilight 4:51 AM EET 6:42 PM EET
Astronomical Twilight 4:21 AM EET 7:13 PM EET
Moon 8:10 AM EET (3/16) 10:29 PM EET (3/16)
Length of Visible Light 12h 50m
Length of Day
11h 58m
Waxing Crescent, 21% of the Moon is Illuminated
Mar 16
Waxing Crescent
Mar 19
First Quarter
Mar 27
Full
Apr 3
Last Quarter
Apr 10
New

Hourly Weather History & Observations

Time (EET) Temp. Dew Point Humidity Pressure Visibility Wind Dir Wind Speed Gust Speed Precip Events Conditions
12:20 AM 64.4 °F 50.0 °F 59% 29.62 in 3.7 mi ENE 6.9 mph - N/A   Mostly Cloudy
12:50 AM 64.4 °F 50.0 °F 59% 29.65 in 3.7 mi South 2.3 mph - N/A   Mostly Cloudy
1:20 AM 64.4 °F 50.0 °F 59% 29.65 in 3.7 mi South 4.6 mph - N/A   Mostly Cloudy
1:50 AM 64.4 °F 51.8 °F 64% 29.65 in 3.1 mi South 6.9 mph - N/A   Haze
2:00 AM 64 °F 51 °F 53% 29.65 in 3 mi South 6.9 mph - -   Widespread Dust
2:20 AM 62.6 °F 51.8 °F 68% 29.65 in 3.1 mi SSE 6.9 mph - N/A   Haze
2:35 AM 62.6 °F 57.2 °F 82% 29.65 in 6.2 mi SSE 8.1 mph - N/A   Mostly Cloudy
2:50 AM 62.6 °F 60.8 °F 94% 29.65 in 6.2 mi SE 6.9 mph - N/A   Mostly Cloudy
3:20 AM 62.6 °F 60.8 °F 94% 29.65 in 6.2 mi South 10.4 mph - N/A   Mostly Cloudy
3:50 AM 60.8 °F 60.8 °F 100% 29.65 in 6.2 mi South 8.1 mph - N/A   Mostly Cloudy
4:20 AM 60.8 °F 59.0 °F 94% 29.68 in 6.2 mi SSE 6.9 mph - N/A   Mostly Cloudy
4:50 AM 59.0 °F 59.0 °F 100% 29.68 in 6.2 mi South 6.9 mph - N/A   Mostly Cloudy
5:20 AM 59.0 °F 59.0 °F 100% 29.71 in 6.2 mi SSE 3.5 mph - N/A   Mostly Cloudy
5:50 AM 59.0 °F 59.0 °F 100% 29.71 in 6.2 mi SE 5.8 mph - N/A   Mostly Cloudy
6:20 AM 59.0 °F 57.2 °F 94% 29.74 in 6.2 mi SE 10.4 mph - N/A   Mostly Cloudy
6:50 AM 59.0 °F 57.2 °F 94% 29.74 in 6.2 mi SSE 9.2 mph - N/A   Mostly Cloudy
7:20 AM 59.0 °F 57.2 °F 94% 29.77 in 6.2 mi SSE 8.1 mph - N/A   Mostly Cloudy
7:50 AM 60.8 °F 57.2 °F 88% 29.77 in 6.2 mi South 10.4 mph - N/A   Mostly Cloudy
8:00 AM 61 °F 56 °F 80% 29.78 in 6 mi South 10.4 mph - -   Scattered Clouds
8:20 AM 62.6 °F 55.4 °F 77% 29.80 in 6.2 mi South 10.4 mph - N/A   Mostly Cloudy
8:50 AM 62.6 °F 53.6 °F 72% 29.80 in 6.2 mi South 12.7 mph - N/A   Mostly Cloudy
9:20 AM 64.4 °F 51.8 °F 64% 29.80 in 6.2 mi South 13.8 mph - N/A   Mostly Cloudy
9:50 AM 64.4 °F 50.0 °F 59% 29.80 in 6.2 mi South 15.0 mph - N/A   Mostly Cloudy
10:20 AM 66.2 °F 50.0 °F 56% 29.80 in 6.2 mi SSW 15.0 mph - N/A   Scattered Clouds
10:50 AM 66.2 °F 48.2 °F 52% 29.80 in 6.2 mi South 16.1 mph - N/A   Scattered Clouds
11:20 AM 66.2 °F 48.2 °F 52% 29.83 in 6.2 mi SSW 13.8 mph - N/A   Scattered Clouds
11:50 AM 66.2 °F 48.2 °F 52% 29.83 in 6.2 mi South 15.0 mph - N/A   Scattered Clouds
12:20 PM 66.2 °F 50.0 °F 56% 29.80 in 6.2 mi South 15.0 mph - N/A   Scattered Clouds
12:50 PM 66.2 °F 48.2 °F 52% 29.80 in 6.2 mi SSW 17.3 mph - N/A   Mostly Cloudy
1:20 PM 64.4 °F 48.2 °F 56% 29.80 in 6.2 mi South 16.1 mph - N/A   Scattered Clouds
1:50 PM 66.2 °F 46.4 °F 49% 29.80 in 6.2 mi South 16.1 mph - N/A   Scattered Clouds
2:00 PM 66 °F 48 °F 42% 29.82 in 12 mi South 16.1 mph - -   Partly Cloudy
2:20 PM 66.2 °F 46.4 °F 49% 29.80 in 6.2 mi SSW 16.1 mph - N/A   Scattered Clouds
2:50 PM 64.4 °F 48.2 °F 56% 29.80 in 6.2 mi SSW 13.8 mph - N/A   Scattered Clouds
3:20 PM 64.4 °F 46.4 °F 52% 29.80 in 6.2 mi SSW 13.8 mph - N/A   Scattered Clouds
3:50 PM 64.4 °F 46.4 °F 52% 29.80 in 6.2 mi SSW 12.7 mph - N/A   Scattered Clouds
4:20 PM 64.4 °F 42.8 °F 45% 29.80 in 6.2 mi SSW 13.8 mph - N/A   Scattered Clouds
4:50 PM 62.6 °F 44.6 °F 52% 29.80 in 6.2 mi SSW 13.8 mph - N/A   Scattered Clouds
5:20 PM 62.6 °F 44.6 °F 52% 29.80 in 6.2 mi SSW 9.2 mph - N/A   Scattered Clouds
5:50 PM 59.0 °F 46.4 °F 63% 29.83 in 6.2 mi South 5.8 mph - N/A   Scattered Clouds
6:20 PM 59.0 °F 46.4 °F 63% 29.83 in 6.2 mi South 8.1 mph - N/A   Scattered Clouds
6:50 PM 59.0 °F 48.2 °F 67% 29.80 in 6.2 mi South 9.2 mph - N/A   Scattered Clouds
7:20 PM 57.2 °F 48.2 °F 72% 29.83 in 6.2 mi South 10.4 mph - N/A   Scattered Clouds
7:50 PM 57.2 °F 48.2 °F 72% 29.80 in 6.2 mi South 8.1 mph - N/A   Scattered Clouds
8:00 PM 57 °F 48 °F 63% 29.82 in 6 mi South 8.1 mph - -   Partly Cloudy
8:20 PM 57.2 °F 48.2 °F 72% 29.80 in 6.2 mi South 9.2 mph - N/A   Scattered Clouds
8:50 PM 55.4 °F 48.2 °F 77% 29.80 in 6.2 mi South 8.1 mph - N/A   Scattered Clouds
9:20 PM 55.4 °F 48.2 °F 77% 29.80 in 6.2 mi South 5.8 mph - N/A   Scattered Clouds
9:50 PM 55.4 °F 48.2 °F 77% 29.80 in 6.2 mi South 6.9 mph - N/A   Scattered Clouds
10:20 PM 57.2 °F 46.4 °F 67% 29.80 in 6.2 mi SSW 12.7 mph - N/A   Scattered Clouds
10:50 PM 55.4 °F 46.4 °F 72% 29.80 in 6.2 mi SSW 13.8 mph - N/A   Scattered Clouds
11:20 PM 55.4 °F 46.4 °F 72% 29.77 in 6.2 mi SSW 11.5 mph - N/A   Scattered Clouds
11:50 PM 53.6 °F 46.4 °F 77% 29.77 in 6.2 mi South 10.4 mph - N/A   Scattered Clouds